Regional Weather Roundup
Issued by NWS

Home | Current Version | Previous Version | Text Only | Print | Product List | Glossary Off
Versions: 1 2 3 4 5 6 7 8 9 10 11 12 13 14 15 16 17 18 19 20 21 22 23 24 25 26 27 28 29 30 31 32 33 34 35 36 37 38 39 40 41 42 43 44 45 46 47 48 49 50

000
ASUS43 KOAX 230910
RWRNE

WEATHER ROUNDUP FOR NEBRASKA
NATIONAL WEATHER SERVICE OMAHA NE
400 AM CDT WED JUL 23 2014

NOTES: SATELLITE DATA IS BEING USED TO AUGMENT CLOUD COVER ABOVE
       12000 FEET.
       "FAIR" INDICATES FEW OR NO CLOUDS BELOW 12,000 FEET WITH NO
       SIGNIFICANT WEATHER AND/OR OBSTRUCTIONS TO VISIBILITY.

  * THESE STATIONS DO NOT REPORT WEATHER SUCH AS RAIN...SNOW OR FOG.

NEZ001>004-019>022-054>056-231000-
NEBRASKA PANHANDLE

CITY           SKY/WX    TMP DP  RH WIND       PRES   REMARKS
SCOTTSBLUFF    CLEAR     69  64  84 SE13      30.29F
ALLIANCE       CLEAR     64  60  87 SE8       30.30F
CHADRON        PTCLDY    67  63  87 N14       30.33R
KIMBALL        CLEAR     67  61  82 SE17      30.31F
SIDNEY         PTCLDY    67  63  87 SE15G22   30.32F
$$

NEZ057>060-069>072-079>082-231000-
SOUTHWEST NEBRASKA

CITY           SKY/WX    TMP DP  RH WIND       PRES   REMARKS
NORTH PLATTE   MOCLDY    68  64  87 SE7       30.27F
IMPERIAL       CLOUDY    70  65  84 E16       30.29R
LEXINGTON      CLOUDY    69  66  93 SE3       30.26R
MCCOOK         CLOUDY    71  67  87 NE10      30.26R
OGALLALA       PTCLDY    66  62  87 E10       30.28S
$$

NEZ005>010-023>029-035>040-094-231000-
NORTH CENTRAL NEBRASKA

CITY           SKY/WX    TMP DP  RH WIND       PRES   REMARKS
VALENTINE      CLOUDY    70  60  70 SE12      30.23F
AINSWORTH      CLOUDY    65  60  82 S3        30.26S
BROKEN BOW     MOCLDY    67  64  90 E9        30.22F
O`NEILL        MOCLDY    64  58  81 CALM      30.25F
ORD            MOCLDY    64  62  93 CALM      30.23F
THEDFORD       MOCLDY    66  64  91 E7        30.27S
$$

NEZ041-046>049-061>064-073>077-083>087-231000-
SOUTH CENTRAL NEBRASKA

CITY           SKY/WX    TMP DP  RH WIND       PRES   REMARKS
GRAND ISLAND   PTCLDY    67  63  87 NE7       30.22F
AURORA         PTCLDY    67  66  96 E6        30.21F
HASTINGS       MOCLDY    69  64  84 E3        30.23S
HEBRON         CLEAR     72  67  84 NE7       30.19F
HOLDREGE       CLOUDY    72  66  82 E9        30.26F THUNDER
KEARNEY *      PTCLDY    66  63  88 E7        30.23S
YORK           PTCLDY    66  64  94 NE8       30.21F
$$

NEZ011>018-030>034-042>045-231000-
NORTHEAST NEBRASKA

CITY           SKY/WX    TMP DP  RH WIND       PRES   REMARKS
NORFOLK        CLEAR     65  57  75 NE5       30.22F
ALBION         PTCLDY    63  59  88 CALM      30.22F
BLAIR          CLEAR     66  52  60 N6        30.19F
COLUMBUS *     CLEAR     63  55  77 NE3       30.21F
FREMONT        CLEAR     65  60  82 CALM      30.19F
TEKAMAH        CLEAR     64  59  83 N12       30.20F
WAYNE          CLEAR     59  58  94 CALM      30.23F
$$

NEZ050>053-065>068-078-088>093-231000-
SOUTHEAST NEBRASKA

CITY           SKY/WX    TMP DP  RH WIND       PRES   REMARKS
LINCOLN        CLEAR     69  62  78 NE8       30.18F
OMAHA EPPLEY   CLEAR     66  59  78 NW7       30.18F
BEATRICE       CLEAR     65  64  97 N5        30.18S
FALLS CITY     CLEAR     69  66  90 N5        30.14S
NEBRASKA CITY  CLEAR     67  62  81 N7        30.18S
PLATTSMOUTH    CLEAR     68  58  71 NE6       30.18F
$$

NEZ044-045-051>053-067-231000-
OMAHA AREA

CITY           SKY/WX    TMP DP  RH WIND       PRES   REMARKS
OMAHA EPPLEY   CLEAR     66  59  78 NW7       30.18F
BLAIR          CLEAR     66  52  60 N6        30.19F
FREMONT        CLEAR     65  60  82 CALM      30.19F
MILLARD        CLEAR     71  59  66 CALM      30.18F
OFFUTT AFB     CLEAR     68  61  78 NE3       30.17F
PLATTSMOUTH    CLEAR     68  58  71 NE6       30.18F
WAHOO          FAIR      64  60  88 N5        30.20F
$$


USA.gov is the U.S. government's official web portal to all federal, state and local government web resources and services.